KBGRKLEB

Guest
Details From KBGR - BANGOR INTL
To KLEB - LEBANON MUNI
Flight Number -
Tags generated
Created
Modified
Stats Distance 166 nm / 308 km
Max Altitude 5,000 ft / 1,524 m
Waypoints 3
Social Downloads 2
Likes 0
Share VATSIM

Download

Looking for another format? Having issues loading an existing format? Contact us
Advertisement - Login to hide

Notes

Basic altitude profile: - Ascent Rate: 500ft/min - Ascent Speed: 150kts - Cruise Altitude: 5000ft - Cruise Speed: 175kts - Descent Rate: 400ft/min - Descent Speed: 125kts

Route

KBGR WYLIE KLEB

ID Type Via Altitude Latitude Longitude Leg Dist Tot Dist Heading (true) Name
O KBGR APT - 0 ft / 0 m 44.80744˚ -68.82813˚ - 0 nm - BANGOR INTL
WYLIE FIX - 5,000 ft / 1,524 m 44.24342˚ -70.99940˚ 98 nm 98 nm 251° / 249° -
O KLEB APT - 0 ft / 0 m 43.62601˚ -72.30423˚ 67 nm 166 nm 237° / 236° LEBANON MUNI

Altitude Profile

Advertisement - Login to hide

Weather


0- 5 10 15 20 25 30 35+ Temperature / ° C

Clouds and Precipitation
Forecast for 2018-05-23 18:00 UTC. Updated 6 hours ago

Ground ~20,000 ft ~40,000 ft Winds

KBGR

Details ICAO KBGR (BGR)
Name BANGOR INTL
Region United States
Timezone America/New_York (UTC-4.0)
Stats Elevation 192 ft / 59 m (AMSL)
Location 44.807437° -68.828126°
Runways 1
Magnetic Variation 16.111° W

METAR

KBGR 232253Z 36013KT 10SM FEW040 BKN250 16/07 A2993 RMK AO2 SLP136 T01610072

Decode

TAF

TAF KBGR 231720Z 2318/2418 33008KT P6SM VCTS OVC060CB FM232100 33009KT P6SM VCSH BKN045 FM232200 35008KT P6SM BKN060

Decode

Departure Runways

ID Width Length Bearing (true) Bearing (mag) Surface Threshold Offset Overrun Length
15 200 ft / 61 m 11,430 ft / 3,484 m 134.27° 150.38° Asphalt 0 ft / 0 m 1,000 ft / 305 m
33 200 ft / 61 m 11,430 ft / 3,484 m 314.29° 330.40° Asphalt 0 ft / 0 m 1,000 ft / 305 m

KLEB

Details ICAO KLEB (LEB)
Name LEBANON MUNI
Region United States
Timezone America/New_York (UTC-4.0)
Stats Elevation 603 ft / 184 m (AMSL)
Location 43.626009° -72.304226°
Runways 2
Magnetic Variation 14.432° W

METAR

KLEB 232253Z 35007G16KT 10SM CLR 24/09 A2990 RMK AO2 SLP118 T02390089

Decode

TAF

KLEB 232209Z 2322/2418 01009KT P6SM SKC FM241200 34005KT P6SM SKC FM241600 34008G14KT P6SM SKC

Decode

Destination Runways

ID Width Length Bearing (true) Bearing (mag) Surface Threshold Offset Overrun Length
07 100 ft / 30 m 5,487 ft / 1,672 m 59.22° 73.65° Asphalt 0 ft / 0 m 0 ft / 0 m
18 100 ft / 30 m 5,205 ft / 1,586 m 168.01° 182.44° Asphalt 0 ft / 0 m 0 ft / 0 m
25 100 ft / 30 m 5,487 ft / 1,672 m 239.23° 253.66° Asphalt 0 ft / 0 m 0 ft / 0 m
36 100 ft / 30 m 5,205 ft / 1,586 m 348.01° 2.44° Asphalt 0 ft / 0 m 0 ft / 0 m

Approach Navaids

Runway Type Ident Frequency Range Bearing (true) Bearing (mag) Slope Elevation
18 Localiser IDVR 111.90 MHz 18 nm / 33 km 170.00° 184.43° - 600 ft / 183 m (AMSL)
18 Glidescope IDVR 111.90 MHz 10 nm / 19 km 170.00° 184.43° 3.10° 560 ft / 171 m (AMSL)
18 DME IDVR 111.90 MHz 18 nm / 33 km - - - 616 ft / 188 m (AMSL)